Location: Stockholm
(59.3330°N, 18.0500°E)
Time: 23:42:56
(UTC+02:00)

AO-92 - Visible Passes

Search period start: 31 March 2023 00:00
Search period end: 10 April 2023 00:00
Orbit: 440 x 449 km, 97.3° (Epoch: 30 March)

Date Brightness Start Highest point End Pass type
(mag) Time Alt. Az. Time Alt. Az. Time Alt. Az.
31 Mar ? 21:08:39 13° ENE 21:09:45 15° NE 21:11:47 10° NNE visible
31 Mar ? 22:42:11 76° NNW 22:42:11 76° NNW 22:45:20 10° NNW visible
01 Apr ? 00:15:43 12° WNW 00:15:43 12° WNW 00:16:31 10° WNW visible
01 Apr ? 22:05:05 40° E 22:05:21 41° ENE 22:08:33 10° N visible
01 Apr ? 23:38:36 24° W 23:38:36 24° W 23:41:00 10° NW visible
02 Apr ? 21:27:54 18° E 21:28:49 21° ENE 21:31:24 10° N visible
02 Apr ? 23:01:24 54° W 23:01:24 54° W 23:04:33 10° NNW visible
03 Apr ? 20:51:11 10° ENE 20:52:22 11° NE 20:53:33 10° NNE visible
03 Apr ? 22:24:08 60° E 22:24:22 62° ENE 22:27:42 10° N visible
03 Apr ? 23:57:39 17° W 23:57:39 17° W 23:59:39 10° NW visible
04 Apr ? 21:46:46 25° E 21:47:35 29° ENE 21:50:32 10° N visible
04 Apr ? 23:20:17 35° W 23:20:17 35° W 23:23:19 10° NNW visible
05 Apr ? 21:09:20 12° E 21:10:53 15° NE 21:12:57 10° NNE visible
05 Apr ? 22:42:50 76° S 22:43:03 85° WSW 22:46:27 10° NNW visible
06 Apr ? 00:16:20 12° W 00:16:20 12° W 00:17:33 10° WNW visible
06 Apr ? 22:05:18 35° E 22:06:02 41° ENE 22:09:14 10° N visible
06 Apr ? 23:38:47 24° W 23:38:48 24° W 23:41:38 10° NW visible
07 Apr ? 21:27:41 16° E 21:29:05 21° ENE 21:31:40 10° N visible
07 Apr ? 23:01:10 53° SW 23:01:27 55° WSW 23:04:47 10° NNW visible
08 Apr ? 20:51:03 10° ENE 20:52:12 11° NE 20:53:21 10° NNE visible
08 Apr ? 22:23:28 47° ESE 22:24:10 62° ENE 22:27:31 10° N visible
08 Apr ? 23:56:57 17° W 23:57:08 17° W 23:59:27 10° NW visible
09 Apr ? 21:45:41 21° E 21:46:58 28° ENE 21:49:54 10° N visible
09 Apr ? 23:19:09 35° WSW 23:19:31 36° W 23:22:40 10° NNW visible
